Вернуться в каталог

METEOR 1-17 DEB

LostPO
NORAD 57544·DEBRIS·🇷🇺 Russia

Запущен Apr 24, 1974 с Plesetsk Cosmodrome

Loading…

Ближайшие Пролёты (ближайшие 24 часа)

TLE

УстаревшееSource: Space-Track

Эпоха: Aug 5, 2024, 07:52 UTC

1 57544U 74025K   24218.32795280  .00008607  00000-0  45683-2 0  9995
2 57544  81.2107 239.7073 0011215  97.6579 262.5867 14.13438262 61074

Отслеживайте METEOR 1-17 DEB в реальном времени с AllMySat

Download on the App Store